Lid_Strength_Index
10 12 14 13 10 9 7 5 6 6 5 6 8 4 3 1 0 -0 0 1 0 -1 -2 -2 -1 -1 -1 -1 -1 -1 -1 -1
11 13 11 10 9 7 7 6 6 6 8 5 3 3 2 0 -0 0 0 1 -1 -1 -2 -2 -1 -2 -1 -1 -1 -1 -1 -1
12 12 10 8 7 7 7 7 7 6 8 7 3 1 1 1 0 1 0 0 0 -2 -2 -2 -2 -2 -1 -2 -1 -1 -1 -1
14 11 9 8 7 8 8 7 7 7 7 7 2 2 1 1 1 0 0 0 0 -1 -2 -2 -2 -2 -1 -1 -1 -1 -1 -1
12 11 10 8 7 7 7 7 8 6 8 6 4 2 1 1 0 0 0 0 0 0 -1 -1 -1 -1 -1 -1 -1 -1 -1 -2
12 12 10 8 7 7 7 7 4 4 8 8 4 1 1 1 1 1 0 0 1 1 0 0 0 -1 -1 -1 -1 -2 -2 -2
13 11 10 7 8 7 6 5 5 4 5 4 2 2 2 2 2 2 1 1 1 0 1 1 0 -0 -1 -2 -1 -2 -1 -2
12 8 9 8 7 8 6 6 7 5 4 3 3 3 3 3 4 3 2 1 0 0 0 1 -0 0 0 -0 0 0 1 1
10 7 7 7 7 7 6 8 6 6 6 4 4 4 4 3 3 3 2 1 1 0 0 0 0 0 0 1 1 1 1 2
10 8 7 7 8 7 6 7 4 4 4 4 4 4 4 3 3 2 2 1 1 0 0 0 1 0 0 2 2 2 3 3
9 10 7 6 8 7 7 5 4 3 4 4 4 4 3 2 2 2 2 1 1 0 0 0 2 2 2 3 2 3 3 2
9 9 6 7 8 7 8 5 4 4 4 4 4 4 3 3 3 2 2 1 1 1 1 2 3 4 4 3 3 2 2 0
10 8 8 7 10 9 7 5 5 5 4 5 4 4 4 3 3 2 2 1 2 2 1 2 3 4 4 3 3 2 0 1
11 7 7 7 10 9 6 6 6 5 5 5 5 5 4 4 3 3 2 2 2 1 1 2 2 3 3 2 1 1 0 2
10 9 8 9 11 9 6 6 6 6 5 5 5 5 5 4 3 3 3 3 3 2 2 2 1 0 1 0 0 1 2 3
12 11 10 9 9 8 7 7 7 6 6 5 5 5 4 5 4 4 3 2 2 1 1 2 0 0 0 1 2 2 3 4
12 10 10 10 9 9 7 7 8 7 6 6 6 4 4 5 5 5 3 3 2 1 1 1 1 2 2 2 3 4 4 5
12 10 9 10 10 9 9 8 8 8 7 6 6 6 5 7 6 5 4 3 2 1 1 1 1 2 2 3 4 5 5 5
12 11 11 11 11 10 9 8 9 8 7 6 6 6 6 7 6 5 4 3 2 1 1 1 1 2 3 5 5 6 6 5
11 13 16 10 16 12 9 9 8 8 8 7 7 6 6 6 6 5 4 2 2 1 1 1 1 2 2 2 4 6 6 5